Year,Month,Day,Hour,Minute,Value (Times are PST for temperature in C)
2018,07,30,00,00,21.10
2018,07,30,00,01,21.10
2018,07,30,00,02,21.10
2018,07,30,00,03,21.10
2018,07,30,00,04,21.20
2018,07,30,00,05,21.20
2018,07,30,00,06,21.20
2018,07,30,00,07,21.20
2018,07,30,00,08,21.20
2018,07,30,00,09,21.20
2018,07,30,00,10,21.20
2018,07,30,00,11,21.20
2018,07,30,00,12,21.20
2018,07,30,00,13,21.20
2018,07,30,00,14,20.90
2018,07,30,00,15,20.90
2018,07,30,00,16,20.90
2018,07,30,00,17,20.90
2018,07,30,00,18,20.90
2018,07,30,00,19,20.90
2018,07,30,00,20,20.90
2018,07,30,00,21,20.90
2018,07,30,00,22,20.90
2018,07,30,00,23,20.90
2018,07,30,00,24,20.70
2018,07,30,00,25,20.70
2018,07,30,00,26,20.70
2018,07,30,00,27,20.70
2018,07,30,00,28,20.70
2018,07,30,00,29,20.70
2018,07,30,00,30,20.70
2018,07,30,00,31,20.70
2018,07,30,00,32,20.70
2018,07,30,00,33,20.70
2018,07,30,00,34,20.70
2018,07,30,00,35,20.70
2018,07,30,00,36,20.70
2018,07,30,00,37,20.70
2018,07,30,00,38,20.70
2018,07,30,00,39,20.70
2018,07,30,00,40,20.70
2018,07,30,00,41,20.70
2018,07,30,00,42,20.70
2018,07,30,00,43,20.70
2018,07,30,00,44,20.70
2018,07,30,00,45,20.60
2018,07,30,00,46,20.60
2018,07,30,00,47,20.60
2018,07,30,00,48,20.60
2018,07,30,00,49,20.60
2018,07,30,00,50,20.60
2018,07,30,00,51,20.60
2018,07,30,00,52,20.60
2018,07,30,00,53,20.60
2018,07,30,00,54,20.60
2018,07,30,00,55,20.60
2018,07,30,00,56,20.60
2018,07,30,00,57,20.60
2018,07,30,00,58,20.60
2018,07,30,00,59,20.60
2018,07,30,01,00,20.60
2018,07,30,01,01,20.60
2018,07,30,01,02,20.60
2018,07,30,01,03,20.60
2018,07,30,01,04,20.60
2018,07,30,01,05,20.60
2018,07,30,01,06,20.60
2018,07,30,01,07,20.60
2018,07,30,01,08,20.60
2018,07,30,01,09,20.60
2018,07,30,01,10,20.60
2018,07,30,01,11,20.60
2018,07,30,01,12,20.60
2018,07,30,01,13,20.60
2018,07,30,01,14,20.70
2018,07,30,01,15,20.70
2018,07,30,01,16,20.70
2018,07,30,01,17,20.70
2018,07,30,01,18,20.70
2018,07,30,01,19,20.70
2018,07,30,01,20,20.70
2018,07,30,01,21,20.70
2018,07,30,01,22,20.70
2018,07,30,01,23,20.70
2018,07,30,01,24,20.70
2018,07,30,01,25,20.70
2018,07,30,01,26,20.70
2018,07,30,01,27,20.70
2018,07,30,01,28,20.70
2018,07,30,01,29,20.70
2018,07,30,01,30,20.70
2018,07,30,01,31,20.70
2018,07,30,01,32,20.70
2018,07,30,01,33,20.70
2018,07,30,01,34,20.70
2018,07,30,01,35,20.70
2018,07,30,01,36,20.70
2018,07,30,01,37,20.70
2018,07,30,01,38,20.70
2018,07,30,01,39,20.70
2018,07,30,01,40,20.70
2018,07,30,01,41,20.70
2018,07,30,01,42,20.70
2018,07,30,01,43,20.70
2018,07,30,01,44,20.70
2018,07,30,01,45,20.70
2018,07,30,01,46,20.70
2018,07,30,01,47,20.70
2018,07,30,01,48,20.70
2018,07,30,01,49,20.70
2018,07,30,01,50,20.70
2018,07,30,01,51,20.70
2018,07,30,01,52,20.70
2018,07,30,01,53,20.70
2018,07,30,01,54,20.70
2018,07,30,01,55,20.60
2018,07,30,01,56,20.60
2018,07,30,01,57,20.60
2018,07,30,01,58,20.60
2018,07,30,01,59,20.60
2018,07,30,02,00,20.60
2018,07,30,02,01,20.60
2018,07,30,02,02,20.60
2018,07,30,02,03,20.60
2018,07,30,02,04,20.60
2018,07,30,02,05,20.60
2018,07,30,02,06,20.60
2018,07,30,02,07,20.60
2018,07,30,02,08,20.60
2018,07,30,02,09,20.60
2018,07,30,02,10,20.60
2018,07,30,02,11,20.60
2018,07,30,02,12,20.60
2018,07,30,02,13,20.80
2018,07,30,02,14,20.80
2018,07,30,02,15,20.80
2018,07,30,02,16,20.80
2018,07,30,02,17,20.80
2018,07,30,02,18,20.80
2018,07,30,02,19,20.80
2018,07,30,02,20,20.80
2018,07,30,02,21,20.80
2018,07,30,02,22,20.80
2018,07,30,02,23,20.80
2018,07,30,02,24,20.70
2018,07,30,02,25,20.70
2018,07,30,02,26,20.70
2018,07,30,02,27,20.70
2018,07,30,02,28,20.70
2018,07,30,02,29,20.70
2018,07,30,02,30,20.70
2018,07,30,02,31,20.70
2018,07,30,02,32,20.70
2018,07,30,02,33,20.70
2018,07,30,02,34,20.40
2018,07,30,02,35,20.40
2018,07,30,02,36,20.40
2018,07,30,02,37,20.40
2018,07,30,02,38,20.40
2018,07,30,02,39,20.40
2018,07,30,02,40,20.40
2018,07,30,02,41,20.40
2018,07,30,02,42,20.40
2018,07,30,02,43,20.40
2018,07,30,02,44,20.60
2018,07,30,02,45,20.60
2018,07,30,02,46,20.60
2018,07,30,02,47,20.60
2018,07,30,02,48,20.60
2018,07,30,02,49,20.60
2018,07,30,02,50,20.60
2018,07,30,02,51,20.60
2018,07,30,02,52,20.60
2018,07,30,02,53,20.60
2018,07,30,02,54,20.70
2018,07,30,02,55,20.70
2018,07,30,02,56,20.70
2018,07,30,02,57,20.70
2018,07,30,02,58,20.70
2018,07,30,02,59,20.70
2018,07,30,03,00,20.70
2018,07,30,03,01,20.70
2018,07,30,03,02,20.70
2018,07,30,03,03,20.70
2018,07,30,03,04,20.80
2018,07,30,03,05,20.80
2018,07,30,03,06,20.80
2018,07,30,03,07,20.80
2018,07,30,03,08,20.80
2018,07,30,03,09,20.80
2018,07,30,03,10,20.80
2018,07,30,03,11,20.80
2018,07,30,03,12,20.80
2018,07,30,03,13,20.80
2018,07,30,03,14,20.70
2018,07,30,03,15,20.70
2018,07,30,03,16,20.70
2018,07,30,03,17,20.70
2018,07,30,03,18,20.70
2018,07,30,03,19,20.70
2018,07,30,03,20,20.70
2018,07,30,03,21,20.70
2018,07,30,03,22,20.70
2018,07,30,03,23,20.70
2018,07,30,03,24,20.70
2018,07,30,03,25,20.70
2018,07,30,03,26,20.70
2018,07,30,03,27,20.70
2018,07,30,03,28,20.70
2018,07,30,03,29,20.70
2018,07,30,03,30,20.70
2018,07,30,03,31,20.70
2018,07,30,03,32,20.70
2018,07,30,03,33,20.70
2018,07,30,03,34,20.70
2018,07,30,03,35,20.70
2018,07,30,03,36,20.70
2018,07,30,03,37,20.70
2018,07,30,03,38,20.70
2018,07,30,03,39,20.70
2018,07,30,03,40,20.70
2018,07,30,03,41,20.70
2018,07,30,03,42,20.70
2018,07,30,03,43,20.70
2018,07,30,03,44,20.70
2018,07,30,03,45,20.70
2018,07,30,03,46,20.70
2018,07,30,03,47,20.70
2018,07,30,03,48,20.70
2018,07,30,03,49,20.70
2018,07,30,03,50,20.70
2018,07,30,03,51,20.70
2018,07,30,03,52,20.70
2018,07,30,03,53,20.70
2018,07,30,03,54,20.70
2018,07,30,03,55,20.70
2018,07,30,03,56,20.70
2018,07,30,03,57,20.70
2018,07,30,03,58,20.70
2018,07,30,03,59,20.70
2018,07,30,04,00,20.70
2018,07,30,04,01,20.70
2018,07,30,04,02,20.70
2018,07,30,04,03,20.60
2018,07,30,04,04,20.60
2018,07,30,04,05,20.60
2018,07,30,04,06,20.60
2018,07,30,04,07,20.60
2018,07,30,04,08,20.60
2018,07,30,04,09,20.60
2018,07,30,04,10,20.60
2018,07,30,04,11,20.60
2018,07,30,04,12,20.60
2018,07,30,04,13,20.60
2018,07,30,04,14,20.60
2018,07,30,04,15,20.60
2018,07,30,04,16,20.60
2018,07,30,04,17,20.60
2018,07,30,04,18,20.60
2018,07,30,04,19,20.60
2018,07,30,04,20,20.60
2018,07,30,04,21,20.60
2018,07,30,04,22,20.60
2018,07,30,04,23,20.60
2018,07,30,04,24,20.40
2018,07,30,04,25,20.40
2018,07,30,04,26,20.40
2018,07,30,04,27,20.40
2018,07,30,04,28,20.40
2018,07,30,04,29,20.40
2018,07,30,04,30,20.40
2018,07,30,04,31,20.40
2018,07,30,04,32,20.40
2018,07,30,04,33,20.40
2018,07,30,04,34,20.30
2018,07,30,04,35,20.30
2018,07,30,04,36,20.30
2018,07,30,04,37,20.30
2018,07,30,04,38,20.30
2018,07,30,04,39,20.30
2018,07,30,04,40,20.30
2018,07,30,04,41,20.30
2018,07,30,04,42,20.30
2018,07,30,04,43,20.30
2018,07,30,04,44,20.30
2018,07,30,04,45,20.10
2018,07,30,04,46,20.10
2018,07,30,04,47,20.10
2018,07,30,04,48,20.10
2018,07,30,04,49,20.10
2018,07,30,04,50,20.10
2018,07,30,04,51,20.10
2018,07,30,04,52,20.10
2018,07,30,04,53,20.00
2018,07,30,04,54,20.00
2018,07,30,04,55,20.00
2018,07,30,04,56,20.00
2018,07,30,04,57,20.00
2018,07,30,04,58,20.00
2018,07,30,04,59,20.00
2018,07,30,05,00,20.00
2018,07,30,05,01,20.00
2018,07,30,05,02,20.00
2018,07,30,05,03,20.30
2018,07,30,05,04,20.30
2018,07,30,05,05,20.30
2018,07,30,05,06,20.30
2018,07,30,05,07,20.30
2018,07,30,05,08,20.30
2018,07,30,05,09,20.30
2018,07,30,05,10,20.30
2018,07,30,05,11,20.30
2018,07,30,05,12,20.30
2018,07,30,05,13,20.30
2018,07,30,05,14,20.30
2018,07,30,05,15,20.30
2018,07,30,05,16,20.30
2018,07,30,05,17,20.30
2018,07,30,05,18,20.30
2018,07,30,05,19,20.30
2018,07,30,05,20,20.30
2018,07,30,05,21,20.30
2018,07,30,05,22,20.30
2018,07,30,05,23,20.30
2018,07,30,05,24,20.10
2018,07,30,05,25,20.10
2018,07,30,05,26,20.10
2018,07,30,05,27,20.10
2018,07,30,05,28,20.10
2018,07,30,05,29,20.10
2018,07,30,05,30,20.10
2018,07,30,05,31,20.10
2018,07,30,05,32,20.10
2018,07,30,05,33,20.10
2018,07,30,05,34,19.80
2018,07,30,05,35,19.80
2018,07,30,05,36,19.80
2018,07,30,05,37,19.80
2018,07,30,05,38,19.80
2018,07,30,05,39,19.80
2018,07,30,05,40,19.80
2018,07,30,05,41,19.80
2018,07,30,05,42,19.80
2018,07,30,05,43,19.60
2018,07,30,05,44,19.60
2018,07,30,05,45,19.60
2018,07,30,05,46,19.60
2018,07,30,05,47,19.60
2018,07,30,05,48,19.60
2018,07,30,05,49,19.60
2018,07,30,05,50,19.60
2018,07,30,05,51,19.60
2018,07,30,05,52,19.60
2018,07,30,05,53,19.60
2018,07,30,05,54,19.60
2018,07,30,05,55,19.60
2018,07,30,05,56,19.60
2018,07,30,05,57,19.60
2018,07,30,05,58,19.60
2018,07,30,05,59,19.60
2018,07,30,06,00,19.60
2018,07,30,06,01,19.60
2018,07,30,06,02,19.60
2018,07,30,06,03,19.60
2018,07,30,06,04,19.60
2018,07,30,06,05,19.60
2018,07,30,06,06,19.60
2018,07,30,06,07,19.60
2018,07,30,06,08,19.60
2018,07,30,06,09,19.60
2018,07,30,06,10,19.60
2018,07,30,06,11,19.60
2018,07,30,06,12,19.60
2018,07,30,06,13,19.60
2018,07,30,06,14,19.60
2018,07,30,06,15,19.60
2018,07,30,06,16,19.60
2018,07,30,06,17,19.60
2018,07,30,06,18,19.60
2018,07,30,06,19,19.60
2018,07,30,06,20,19.60
2018,07,30,06,21,19.60
2018,07,30,06,22,19.60
2018,07,30,06,23,19.60
2018,07,30,06,24,19.60
2018,07,30,06,25,19.60
2018,07,30,06,26,19.60
2018,07,30,06,27,19.60
2018,07,30,06,28,19.60
2018,07,30,06,29,19.60
2018,07,30,06,30,19.60
2018,07,30,06,31,19.60
2018,07,30,06,32,19.60
2018,07,30,06,33,19.50
2018,07,30,06,34,19.50
2018,07,30,06,35,19.50
2018,07,30,06,36,19.50
2018,07,30,06,37,19.50
2018,07,30,06,38,19.50
2018,07,30,06,39,19.50
2018,07,30,06,40,19.50
2018,07,30,06,41,19.50
2018,07,30,06,42,19.50
2018,07,30,06,43,19.60
2018,07,30,06,44,19.60
2018,07,30,06,45,19.60
2018,07,30,06,46,19.60
2018,07,30,06,47,19.60
2018,07,30,06,48,19.60
2018,07,30,06,49,19.60
2018,07,30,06,50,19.60
2018,07,30,06,51,19.60
2018,07,30,06,52,19.60
2018,07,30,06,53,19.80
2018,07,30,06,54,19.80
2018,07,30,06,55,19.80
2018,07,30,06,56,19.80
2018,07,30,06,57,19.80
2018,07,30,06,58,19.80
2018,07,30,06,59,19.80
2018,07,30,07,00,19.80
2018,07,30,07,01,19.80
2018,07,30,07,02,19.80
2018,07,30,07,03,19.80
2018,07,30,07,04,19.90
2018,07,30,07,05,19.90
2018,07,30,07,06,19.90
2018,07,30,07,07,19.90
2018,07,30,07,08,19.90
2018,07,30,07,09,19.90
2018,07,30,07,10,19.90
2018,07,30,07,11,19.90
2018,07,30,07,12,19.90
2018,07,30,07,13,20.10
2018,07,30,07,14,20.10
2018,07,30,07,15,20.10
2018,07,30,07,16,20.10
2018,07,30,07,17,20.10
2018,07,30,07,18,20.10
2018,07,30,07,19,20.10
2018,07,30,07,20,20.10
2018,07,30,07,21,20.10
2018,07,30,07,22,20.10
2018,07,30,07,23,20.10
2018,07,30,07,24,20.10
2018,07,30,07,25,20.20
2018,07,30,07,26,20.20
2018,07,30,07,27,20.20
2018,07,30,07,28,20.20
2018,07,30,07,29,20.20
2018,07,30,07,30,20.20
2018,07,30,07,31,20.20
2018,07,30,07,32,20.20
2018,07,30,07,33,20.20
2018,07,30,07,34,20.40
2018,07,30,07,35,20.40
2018,07,30,07,36,20.40
2018,07,30,07,37,20.40
2018,07,30,07,38,20.40
2018,07,30,07,39,20.40
2018,07,30,07,40,20.40
2018,07,30,07,41,20.40
2018,07,30,07,42,20.40
2018,07,30,07,43,20.40
2018,07,30,07,44,20.40
2018,07,30,07,45,20.60
2018,07,30,07,46,20.60
2018,07,30,07,47,20.60
2018,07,30,07,48,20.60
2018,07,30,07,49,20.60
2018,07,30,07,50,20.60
2018,07,30,07,51,20.60
2018,07,30,07,52,20.60
2018,07,30,07,53,20.80
2018,07,30,07,54,20.80
2018,07,30,07,55,20.80
2018,07,30,07,56,20.80
2018,07,30,07,57,20.80
2018,07,30,07,58,20.80
2018,07,30,07,59,20.80
2018,07,30,08,00,20.80
2018,07,30,08,01,20.80
2018,07,30,08,02,20.80
2018,07,30,08,03,21.10
2018,07,30,08,04,21.10
2018,07,30,08,05,21.10
2018,07,30,08,06,21.10
2018,07,30,08,07,21.10
2018,07,30,08,08,21.10
2018,07,30,08,09,21.10
2018,07,30,08,10,21.10
2018,07,30,08,11,21.10
2018,07,30,08,12,21.10
2018,07,30,08,13,21.40
2018,07,30,08,14,21.40
2018,07,30,08,15,21.40
2018,07,30,08,16,21.40
2018,07,30,08,17,21.40
2018,07,30,08,18,21.40
2018,07,30,08,19,21.40
2018,07,30,08,20,21.40
2018,07,30,08,21,21.40
2018,07,30,08,22,21.40
2018,07,30,08,23,21.40
2018,07,30,08,24,21.40
2018,07,30,08,25,21.70
2018,07,30,08,26,21.70
2018,07,30,08,27,21.70
2018,07,30,08,28,21.70
2018,07,30,08,29,21.70
2018,07,30,08,30,21.70
2018,07,30,08,31,21.70
2018,07,30,08,32,21.70
2018,07,30,08,33,21.90
2018,07,30,08,34,21.90
2018,07,30,08,35,21.90
2018,07,30,08,36,21.90
2018,07,30,08,37,21.90
2018,07,30,08,38,21.90
2018,07,30,08,39,21.90
2018,07,30,08,40,21.90
2018,07,30,08,41,21.90
2018,07,30,08,42,21.90
2018,07,30,08,43,21.90
2018,07,30,08,44,21.90
2018,07,30,08,45,22.10
2018,07,30,08,46,22.10
2018,07,30,08,47,22.10
2018,07,30,08,48,22.10
2018,07,30,08,49,22.10
2018,07,30,08,50,22.10
2018,07,30,08,51,22.10
2018,07,30,08,52,22.10
2018,07,30,08,53,22.20
2018,07,30,08,54,22.20
2018,07,30,08,55,22.20
2018,07,30,08,56,22.20
2018,07,30,08,57,22.20
2018,07,30,08,58,22.20
2018,07,30,08,59,22.20
2018,07,30,09,00,22.20
2018,07,30,09,01,22.20
2018,07,30,09,02,22.20
2018,07,30,09,03,22.20
2018,07,30,09,04,22.20
2018,07,30,09,05,22.20
2018,07,30,09,06,22.20
2018,07,30,09,07,22.20
2018,07,30,09,08,22.20
2018,07,30,09,09,22.20
2018,07,30,09,10,22.20
2018,07,30,09,11,22.20
2018,07,30,09,12,22.20
2018,07,30,09,13,22.20
2018,07,30,09,14,22.20
2018,07,30,09,15,22.20
2018,07,30,09,16,22.20
2018,07,30,09,17,22.20
2018,07,30,09,18,22.20
2018,07,30,09,19,22.20
2018,07,30,09,20,22.20
2018,07,30,09,21,22.20
2018,07,30,09,22,22.20
2018,07,30,09,23,22.20
2018,07,30,09,24,22.20
2018,07,30,09,25,22.50
2018,07,30,09,26,22.50
2018,07,30,09,27,22.50
2018,07,30,09,28,22.50
2018,07,30,09,29,22.50
2018,07,30,09,30,22.50
2018,07,30,09,31,22.50
2018,07,30,09,32,22.50
2018,07,30,09,33,22.50
2018,07,30,09,34,23.30
2018,07,30,09,35,23.30
2018,07,30,09,36,23.30
2018,07,30,09,37,23.30
2018,07,30,09,38,23.30
2018,07,30,09,39,23.30
2018,07,30,09,40,23.30
2018,07,30,09,41,23.30
2018,07,30,09,42,23.30
2018,07,30,09,43,23.30
2018,07,30,09,44,23.30
2018,07,30,09,45,23.30
2018,07,30,09,46,23.30
2018,07,30,09,47,23.30
2018,07,30,09,48,23.30
2018,07,30,09,49,23.30
2018,07,30,09,50,23.30
2018,07,30,09,51,23.30
2018,07,30,09,52,23.30
2018,07,30,09,53,23.30
2018,07,30,09,54,23.70
2018,07,30,09,55,23.70
2018,07,30,09,56,23.70
2018,07,30,09,57,23.70
2018,07,30,09,58,23.70
2018,07,30,09,59,23.70
2018,07,30,10,00,23.70
2018,07,30,10,01,23.70
2018,07,30,10,02,23.70
2018,07,30,10,03,23.70
2018,07,30,10,04,23.70
2018,07,30,10,05,23.70
2018,07,30,10,06,23.70
2018,07,30,10,07,23.70
2018,07,30,10,08,23.70
2018,07,30,10,09,23.70
2018,07,30,10,10,23.70
2018,07,30,10,11,23.70
2018,07,30,10,12,23.70
2018,07,30,10,13,23.70
2018,07,30,10,14,23.70
2018,07,30,10,15,24.10
2018,07,30,10,16,24.10
2018,07,30,10,17,24.10
2018,07,30,10,18,24.10
2018,07,30,10,19,24.10
2018,07,30,10,20,24.10
2018,07,30,10,21,24.10
2018,07,30,10,22,24.10
2018,07,30,10,23,24.10
2018,07,30,10,24,24.10
2018,07,30,10,25,24.10
2018,07,30,10,26,24.10
2018,07,30,10,27,24.10
2018,07,30,10,28,24.10
2018,07,30,10,29,24.10
2018,07,30,10,30,24.10
2018,07,30,10,31,24.10
2018,07,30,10,32,24.10
2018,07,30,10,33,24.10
2018,07,30,10,34,24.20
2018,07,30,10,35,24.20
2018,07,30,10,36,24.20
2018,07,30,10,37,24.20
2018,07,30,10,38,24.20
2018,07,30,10,39,24.20
2018,07,30,10,40,24.20
2018,07,30,10,41,24.20
2018,07,30,10,42,24.20
2018,07,30,10,43,24.20
2018,07,30,10,44,24.20
2018,07,30,10,45,24.20
2018,07,30,10,46,24.20
2018,07,30,10,47,24.20
2018,07,30,10,48,24.20
2018,07,30,10,49,24.20
2018,07,30,10,50,24.20
2018,07,30,10,51,24.20
2018,07,30,10,52,24.20
2018,07,30,10,53,24.20
2018,07,30,10,54,24.20
2018,07,30,10,55,24.10
2018,07,30,10,56,24.10
2018,07,30,10,57,24.10
2018,07,30,10,58,24.10
2018,07,30,10,59,24.10
2018,07,30,11,00,24.10
2018,07,30,11,01,24.10
2018,07,30,11,02,24.10
2018,07,30,11,03,24.10
2018,07,30,11,04,24.10
2018,07,30,11,05,24.10
2018,07,30,11,06,24.10
2018,07,30,11,07,24.10
2018,07,30,11,08,24.10
2018,07,30,11,09,24.10
2018,07,30,11,10,24.10
2018,07,30,11,11,24.10
2018,07,30,11,12,24.10
2018,07,30,11,13,24.10
2018,07,30,11,14,24.30
2018,07,30,11,15,24.30
2018,07,30,11,16,24.30
2018,07,30,11,17,24.30
2018,07,30,11,18,24.30
2018,07,30,11,19,24.30
2018,07,30,11,20,24.30
2018,07,30,11,21,24.30
2018,07,30,11,22,24.30
2018,07,30,11,23,24.30
2018,07,30,11,24,24.30
2018,07,30,11,25,24.30
2018,07,30,11,26,24.30
2018,07,30,11,27,24.30
2018,07,30,11,28,24.30
2018,07,30,11,29,24.30
2018,07,30,11,30,24.30
2018,07,30,11,31,24.30
2018,07,30,11,32,24.30
2018,07,30,11,33,24.30
2018,07,30,11,34,24.40
2018,07,30,11,35,24.40
2018,07,30,11,36,24.40
2018,07,30,11,37,24.40
2018,07,30,11,38,24.40
2018,07,30,11,39,24.40
2018,07,30,11,40,24.40
2018,07,30,11,41,24.40
2018,07,30,11,42,24.40
2018,07,30,11,43,24.40
2018,07,30,11,44,24.40
2018,07,30,11,45,24.40
2018,07,30,11,46,24.40
2018,07,30,11,47,24.40
2018,07,30,11,48,24.40
2018,07,30,11,49,24.40
2018,07,30,11,50,24.40
2018,07,30,11,51,24.40
2018,07,30,11,52,24.40
2018,07,30,11,53,24.40
2018,07,30,11,54,24.40
2018,07,30,11,55,24.40
2018,07,30,11,56,24.40
2018,07,30,11,57,24.40
2018,07,30,11,58,24.40
2018,07,30,11,59,24.40
2018,07,30,12,00,24.40
2018,07,30,12,01,24.40
2018,07,30,12,02,24.40
2018,07,30,12,03,24.40
2018,07,30,12,04,24.40
2018,07,30,12,05,24.40
2018,07,30,12,06,24.40
2018,07,30,12,07,24.40
2018,07,30,12,08,24.40
2018,07,30,12,09,24.40
2018,07,30,12,10,24.40
2018,07,30,12,11,24.40
2018,07,30,12,12,24.40
2018,07,30,12,24,24.50
2018,07,30,12,25,24.50
2018,07,30,12,26,24.50
2018,07,30,12,27,24.50
2018,07,30,12,28,24.50
2018,07,30,12,29,24.50
2018,07,30,12,30,24.50
2018,07,30,12,31,24.50
2018,07,30,12,32,24.50
2018,07,30,12,33,24.70
2018,07,30,12,34,24.70
2018,07,30,12,35,24.70
2018,07,30,12,36,24.70
2018,07,30,12,37,24.70
2018,07,30,12,38,24.70
2018,07,30,12,39,24.70
2018,07,30,12,40,24.70
2018,07,30,12,41,24.70
2018,07,30,12,42,24.70
2018,07,30,12,43,24.70
2018,07,30,12,44,24.70
2018,07,30,12,45,24.70
2018,07,30,12,46,24.70
2018,07,30,12,47,24.70
2018,07,30,12,48,24.70
2018,07,30,12,49,24.70
2018,07,30,12,50,24.70
2018,07,30,12,51,24.70
2018,07,30,12,52,24.70
2018,07,30,12,53,24.70
2018,07,30,12,54,24.70
2018,07,30,12,55,24.70
2018,07,30,12,56,24.70
2018,07,30,12,57,24.70
2018,07,30,12,58,24.70
2018,07,30,12,59,24.70
2018,07,30,13,00,24.70
2018,07,30,13,01,24.70
2018,07,30,13,02,24.70
2018,07,30,13,03,24.10
2018,07,30,13,04,24.10
2018,07,30,13,05,24.10
2018,07,30,13,06,24.10
2018,07,30,13,07,24.10
2018,07,30,13,08,24.10
2018,07,30,13,09,24.10
2018,07,30,13,10,24.10
2018,07,30,13,11,24.10
2018,07,30,13,12,24.10
2018,07,30,13,13,24.10
2018,07,30,13,14,24.10
2018,07,30,13,15,24.10
2018,07,30,13,16,24.10
2018,07,30,13,17,24.10
2018,07,30,13,18,24.10
2018,07,30,13,19,24.10
2018,07,30,13,20,24.10
2018,07,30,13,21,24.10
2018,07,30,13,22,24.10
2018,07,30,13,23,24.10
2018,07,30,13,24,24.10
2018,07,30,13,25,24.10
2018,07,30,13,26,24.10
2018,07,30,13,27,24.10
2018,07,30,13,28,24.10
2018,07,30,13,29,24.10
2018,07,30,13,30,24.10
2018,07,30,13,31,24.10
2018,07,30,13,32,24.10
2018,07,30,13,33,24.10
2018,07,30,13,34,24.10
2018,07,30,13,35,24.10
2018,07,30,13,36,24.10
2018,07,30,13,37,24.10
2018,07,30,13,38,24.10
2018,07,30,13,39,24.10
2018,07,30,13,40,24.10
2018,07,30,13,45,22.90
2018,07,30,13,46,22.90
2018,07,30,13,47,22.90
2018,07,30,13,48,22.90
2018,07,30,13,49,22.90
2018,07,30,13,50,22.90
2018,07,30,13,51,22.90
2018,07,30,13,52,22.90
2018,07,30,13,53,22.90
2018,07,30,13,54,22.90
2018,07,30,13,55,22.90
2018,07,30,13,56,22.90
2018,07,30,13,57,22.90
2018,07,30,13,58,22.90
2018,07,30,13,59,22.90
2018,07,30,14,00,22.90
2018,07,30,14,01,22.90
2018,07,30,14,02,22.90
2018,07,30,14,03,22.90
2018,07,30,14,04,22.90
2018,07,30,14,05,22.90
2018,07,30,14,06,22.90
2018,07,30,14,07,22.90
2018,07,30,14,08,22.90
2018,07,30,14,09,22.90
2018,07,30,14,10,22.90
2018,07,30,14,11,22.90
2018,07,30,14,12,22.90
2018,07,30,14,13,22.90
2018,07,30,14,14,22.40
2018,07,30,14,15,22.40
2018,07,30,14,16,22.40
2018,07,30,14,17,22.40
2018,07,30,14,18,22.40
2018,07,30,14,19,22.40
2018,07,30,14,20,22.40
2018,07,30,14,21,22.40
2018,07,30,14,22,22.40
2018,07,30,14,23,22.40
2018,07,30,14,24,22.40
2018,07,30,14,25,22.40
2018,07,30,14,26,22.40
2018,07,30,14,27,22.40
2018,07,30,14,28,22.40
2018,07,30,14,29,22.40
2018,07,30,14,30,22.40
2018,07,30,14,31,22.40
2018,07,30,14,32,22.40
2018,07,30,14,33,22.30
2018,07,30,14,34,22.30
2018,07,30,14,35,22.30
2018,07,30,14,36,22.30
2018,07,30,14,37,22.30
2018,07,30,14,38,22.30
2018,07,30,14,39,22.30
2018,07,30,14,40,22.30
2018,07,30,14,41,22.30
2018,07,30,14,42,22.30
2018,07,30,14,43,22.30
2018,07,30,14,44,22.30
2018,07,30,14,45,22.30
2018,07,30,14,46,22.30
2018,07,30,14,47,22.30
2018,07,30,14,48,22.30
2018,07,30,14,49,22.30
2018,07,30,14,50,22.30
2018,07,30,14,51,22.30
2018,07,30,14,52,22.30
2018,07,30,14,53,22.30
2018,07,30,14,54,22.20
2018,07,30,14,55,22.20
2018,07,30,14,56,22.20
2018,07,30,14,57,22.20
2018,07,30,14,58,22.20
2018,07,30,14,59,22.20
2018,07,30,15,00,22.20
2018,07,30,15,01,22.20
2018,07,30,15,02,22.20
2018,07,30,15,03,22.20
2018,07,30,15,04,22.20
2018,07,30,15,05,22.20
2018,07,30,15,06,22.20
2018,07,30,15,07,22.20
2018,07,30,15,08,22.20
2018,07,30,15,09,22.20
2018,07,30,15,10,22.20
2018,07,30,15,11,22.20
2018,07,30,15,12,22.20
2018,07,30,15,13,22.20
2018,07,30,15,14,22.40
2018,07,30,15,15,22.40
2018,07,30,15,16,22.40
2018,07,30,15,17,22.40
2018,07,30,15,18,22.40
2018,07,30,15,19,22.40
2018,07,30,15,20,22.40
2018,07,30,15,21,22.40
2018,07,30,15,22,22.40
2018,07,30,15,23,22.40
2018,07,30,15,24,22.40
2018,07,30,15,25,22.40
2018,07,30,15,26,22.40
2018,07,30,15,27,22.40
2018,07,30,15,28,22.40
2018,07,30,15,29,22.40
2018,07,30,15,30,22.40
2018,07,30,15,31,22.40
2018,07,30,15,32,22.40
2018,07,30,15,33,22.40
2018,07,30,15,34,22.40
2018,07,30,15,35,22.40
2018,07,30,15,36,22.40
2018,07,30,15,37,22.40
2018,07,30,15,38,22.40
2018,07,30,15,39,22.40
2018,07,30,15,40,22.40
2018,07,30,15,41,22.40
2018,07,30,15,42,22.40
2018,07,30,15,43,22.80
2018,07,30,15,44,22.80
2018,07,30,15,45,22.80
2018,07,30,15,46,22.80
2018,07,30,15,47,22.80
2018,07,30,15,48,22.80
2018,07,30,15,49,22.80
2018,07,30,15,50,22.80
2018,07,30,15,51,22.80
2018,07,30,15,52,22.80
2018,07,30,15,53,22.80
2018,07,30,15,54,22.80
2018,07,30,15,55,22.80
2018,07,30,15,56,22.80
2018,07,30,15,57,22.80
2018,07,30,15,58,22.80
2018,07,30,15,59,22.80
2018,07,30,16,00,22.80
2018,07,30,16,01,22.80
2018,07,30,16,02,22.80
2018,07,30,16,03,22.80
2018,07,30,16,04,22.80
2018,07,30,16,05,22.80
2018,07,30,16,06,22.80
2018,07,30,16,07,22.80
2018,07,30,16,08,22.80
2018,07,30,16,09,22.80
2018,07,30,16,10,22.80
2018,07,30,16,11,22.80
2018,07,30,16,12,22.80
2018,07,30,16,13,22.70
2018,07,30,16,14,22.70
2018,07,30,16,15,22.70
2018,07,30,16,16,22.70
2018,07,30,16,17,22.70
2018,07,30,16,18,22.70
2018,07,30,16,19,22.70
2018,07,30,16,20,22.70
2018,07,30,16,21,22.70
2018,07,30,16,22,22.70
2018,07,30,16,23,22.70
2018,07,30,16,24,22.70
2018,07,30,16,25,22.70
2018,07,30,16,26,22.70
2018,07,30,16,27,22.70
2018,07,30,16,28,22.70
2018,07,30,16,29,22.70
2018,07,30,16,30,22.70
2018,07,30,16,31,22.70
2018,07,30,16,32,22.70
2018,07,30,16,33,22.80
2018,07,30,16,34,22.80
2018,07,30,16,35,22.80
2018,07,30,16,36,22.80
2018,07,30,16,37,22.80
2018,07,30,16,38,22.80
2018,07,30,16,39,22.80
2018,07,30,16,40,22.80
2018,07,30,16,41,22.80
2018,07,30,16,42,22.80
2018,07,30,16,43,22.80
2018,07,30,16,44,22.80
2018,07,30,16,45,22.80
2018,07,30,16,46,22.80
2018,07,30,16,47,22.80
2018,07,30,16,48,22.80
2018,07,30,16,49,22.80
2018,07,30,16,50,22.80
2018,07,30,16,51,22.80
2018,07,30,16,52,22.80
2018,07,30,16,53,22.80
2018,07,30,16,54,22.80
2018,07,30,16,55,22.80
2018,07,30,16,56,22.80
2018,07,30,16,57,22.80
2018,07,30,16,58,22.80
2018,07,30,16,59,22.80
2018,07,30,17,00,22.80
2018,07,30,17,01,22.80
2018,07,30,17,02,22.80
2018,07,30,17,03,22.80
2018,07,30,17,04,22.80
2018,07,30,17,05,22.80
2018,07,30,17,06,22.80
2018,07,30,17,07,22.80
2018,07,30,17,08,22.80
2018,07,30,17,09,22.80
2018,07,30,17,10,22.80
2018,07,30,17,11,22.80
2018,07,30,17,12,22.80
2018,07,30,17,13,22.80
2018,07,30,17,14,22.80
2018,07,30,17,15,22.80
2018,07,30,17,16,22.80
2018,07,30,17,17,22.80
2018,07,30,17,18,22.80
2018,07,30,17,19,22.80
2018,07,30,17,20,22.80
2018,07,30,17,21,22.80
2018,07,30,17,22,22.80
2018,07,30,17,23,22.70
2018,07,30,17,24,22.70
2018,07,30,17,25,22.70
2018,07,30,17,26,22.70
2018,07,30,17,27,22.70
2018,07,30,17,28,22.70
2018,07,30,17,29,22.70
2018,07,30,17,30,22.70
2018,07,30,17,31,22.70
2018,07,30,17,32,22.70
2018,07,30,17,33,22.70
2018,07,30,17,34,22.70